Location: Bouchavesnes-Bergen
(49.9859°N, 2.9203°E)
Time: 23:32:06
(UTC+00:00)

IDEFIX/ARIANE 42P - Pass Details

Date: 09 March 2021
Orbit: 784 x 803 km, 98.4° (Epoch: 13 April)

Event Time Altitude Azimuth Distance (km) Brightness Sun altitude
Rises 03:53:51 0° 7° (N) 3,303 6.2 -23.1°
Reaches altitude 10° 03:56:24 10° 358° (N) 2,366 5.2 -22.7°
Enters shadow 04:00:32 31° 306° (NW) 1,371 3.5 -22.1°
